Time,TemperatureF,DewpointF,PressureIn,WindDirection,WindDirectionDegrees,WindSpeedMPH,WindSpeedGustMPH,Humidity,HourlyPrecipIn,Conditions,Clouds,dailyrainin,SoftwareType,DateUTC
2013-05-20 00:04:00,49.5,43.2,30.27,WSW,251,2.0,4.0,79,0.00,CLR,,0.00,WeatherDisplay:10.37,2013-05-20 07:04:00,
2013-05-20 00:09:00,48.7,43.1,30.27,SSW,206,3.5,3.5,81,0.00,CLR,,0.00,WeatherDisplay:10.37,2013-05-20 07:09:00,
2013-05-20 00:14:00,48.8,43.2,30.27,WSW,252,9.2,9.2,81,0.00,CLR,,0.00,WeatherDisplay:10.37,2013-05-20 07:14:00,
2013-05-20 00:19:00,47.7,42.1,30.27,South,181,3.0,9.0,81,0.00,CLR,,0.00,WeatherDisplay:10.37,2013-05-20 07:19:00,
2013-05-20 00:24:00,46.5,41.3,30.28,SSW,209,3.5,3.5,82,0.00,CLR,,0.00,WeatherDisplay:10.37,2013-05-20 07:24:00,
2013-05-20 00:29:00,45.6,41.0,30.28,SSW,196,3.5,3.5,84,0.00,CLR,,0.00,WeatherDisplay:10.37,2013-05-20 07:29:00,
2013-05-20 00:34:00,45.2,41.0,30.27,SSW,197,0.0,4.0,85,0.00,CLR,,0.00,WeatherDisplay:10.37,2013-05-20 07:34:00,
2013-05-20 00:39:00,45.1,41.2,30.27,SSW,205,3.5,3.5,86,0.00,CLR,,0.00,WeatherDisplay:10.37,2013-05-20 07:39:00,
2013-05-20 00:44:00,44.7,40.8,30.27,SSW,193,2.0,5.0,86,0.00,CLR,,0.00,WeatherDisplay:10.37,2013-05-20 07:44:00,
2013-05-20 00:49:00,44.1,40.2,30.28,South,178,2.0,5.0,86,0.00,CLR,,0.00,WeatherDisplay:10.37,2013-05-20 07:49:00,
2013-05-20 00:54:00,43.7,39.8,30.28,South,184,2.0,4.0,86,0.00,CLR,,0.00,WeatherDisplay:10.37,2013-05-20 07:54:00,
2013-05-20 00:59:00,43.2,39.3,30.28,SSW,206,3.5,3.5,86,0.00,CLR,,0.00,WeatherDisplay:10.37,2013-05-20 07:59:00,
2013-05-20 01:04:00,42.9,39.3,30.28,SSW,205,3.5,3.5,87,0.00,CLR,,0.00,WeatherDisplay:10.37,2013-05-20 08:04:00,
2013-05-20 01:09:00,42.8,39.5,30.28,SSW,200,1.0,4.0,88,0.00,CLR,,0.00,WeatherDisplay:10.37,2013-05-20 08:09:00,
2013-05-20 01:14:00,42.7,39.4,30.28,South,190,2.0,5.0,88,0.00,CLR,,0.00,WeatherDisplay:10.37,2013-05-20 08:14:00,
2013-05-20 01:19:00,42.7,39.4,30.28,South,182,2.3,2.3,88,0.00,CLR,,0.00,WeatherDisplay:10.37,2013-05-20 08:19:00,
2013-05-20 01:24:00,42.5,39.2,30.28,SSW,205,2.3,2.3,88,0.00,CLR,,0.00,WeatherDisplay:10.37,2013-05-20 08:24:00,
2013-05-20 01:29:00,42.2,38.9,30.28,SSW,204,1.0,4.0,88,0.00,CLR,,0.00,WeatherDisplay:10.37,2013-05-20 08:29:00,
2013-05-20 01:34:00,41.9,38.6,30.27,SSW,205,1.1,1.1,88,0.00,CLR,,0.00,WeatherDisplay:10.37,2013-05-20 08:34:00,
2013-05-20 01:39:00,41.7,38.7,30.27,SSW,198,1.0,4.0,89,0.00,CLR,,0.00,WeatherDisplay:10.37,2013-05-20 08:39:00,
2013-05-20 01:44:00,41.7,39.0,30.28,South,182,1.0,3.0,90,0.00,CLR,,0.00,WeatherDisplay:10.37,2013-05-20 08:44:00,
2013-05-20 01:49:00,41.7,38.7,30.28,South,179,4.0,4.0,89,0.00,CLR,,0.00,WeatherDisplay:10.37,2013-05-20 08:49:00,
2013-05-20 01:54:00,41.5,38.5,30.28,SSW,196,2.0,5.0,89,0.00,CLR,,0.00,WeatherDisplay:10.37,2013-05-20 08:54:00,
2013-05-20 01:59:00,41.3,38.3,30.28,SSW,193,0.0,4.0,89,0.00,CLR,,0.00,WeatherDisplay:10.37,2013-05-20 08:59:00,
2013-05-20 02:04:00,41.0,38.0,30.28,SSE,165,0.0,0.0,89,0.00,CLR,,0.00,WeatherDisplay:10.37,2013-05-20 09:04:00,
2013-05-20 02:09:00,40.8,38.1,30.28,SSE,165,2.3,2.3,90,0.00,CLR,,0.00,WeatherDisplay:10.37,2013-05-20 09:09:00,
2013-05-20 02:14:00,40.7,38.0,30.28,South,190,3.5,3.5,90,0.00,CLR,,0.00,WeatherDisplay:10.37,2013-05-20 09:14:00,
2013-05-20 02:19:00,40.6,37.9,30.28,SSW,206,3.5,3.5,90,0.00,CLR,,0.00,WeatherDisplay:10.37,2013-05-20 09:19:00,
2013-05-20 02:24:00,40.4,37.7,30.28,SSW,210,3.0,7.0,90,0.00,CLR,,0.00,WeatherDisplay:10.37,2013-05-20 09:24:00,
2013-05-20 02:29:00,40.4,38.0,30.28,SSW,206,3.0,7.0,91,0.00,CLR,,0.00,WeatherDisplay:10.37,2013-05-20 09:29:00,
2013-05-20 02:34:00,40.4,38.0,30.28,South,180,4.6,4.6,91,0.00,CLR,,0.00,WeatherDisplay:10.37,2013-05-20 09:34:00,
2013-05-20 02:39:00,40.4,38.0,30.28,SSW,196,2.0,5.0,91,0.00,CLR,,0.00,WeatherDisplay:10.37,2013-05-20 09:39:00,
2013-05-20 02:44:00,40.5,38.1,30.28,SSW,192,3.5,3.5,91,0.00,CLR,,0.00,WeatherDisplay:10.37,2013-05-20 09:44:00,
2013-05-20 02:49:00,40.4,38.0,30.28,South,191,3.5,3.5,91,0.00,CLR,,0.00,WeatherDisplay:10.37,2013-05-20 09:49:00,
2013-05-20 02:54:00,40.4,38.0,30.28,South,177,3.5,3.5,91,0.00,CLR,,0.00,WeatherDisplay:10.37,2013-05-20 09:54:00,
2013-05-20 02:59:00,40.3,37.9,30.28,South,187,5.8,5.8,91,0.00,CLR,,0.00,WeatherDisplay:10.37,2013-05-20 09:59:00,
2013-05-20 03:05:00,40.2,37.8,30.28,South,190,4.6,4.6,91,0.00,CLR,,0.00,WeatherDisplay:10.37,2013-05-20 10:05:00,
2013-05-20 03:09:00,40.0,37.6,30.28,South,183,3.5,3.5,91,0.00,CLR,,0.00,WeatherDisplay:10.37,2013-05-20 10:09:00,
2013-05-20 03:15:00,39.9,37.5,30.29,SSW,208,4.6,4.6,91,0.00,CLR,,0.00,WeatherDisplay:10.37,2013-05-20 10:15:00,
2013-05-20 03:20:00,39.8,37.7,30.29,SSW,200,3.5,3.5,92,0.00,CLR,,0.00,WeatherDisplay:10.37,2013-05-20 10:20:00,
2013-05-20 03:25:00,39.8,37.7,30.29,SW,220,6.9,6.9,92,0.00,CLR,,0.00,WeatherDisplay:10.37,2013-05-20 10:25:00,
2013-05-20 03:30:00,39.6,37.5,30.29,SSW,207,3.5,3.5,92,0.00,CLR,,0.00,WeatherDisplay:10.37,2013-05-20 10:30:00,
2013-05-20 03:35:00,39.5,37.4,30.29,SSW,206,2.3,2.3,92,0.00,CLR,,0.00,WeatherDisplay:10.37,2013-05-20 10:35:00,
2013-05-20 03:40:00,39.6,37.5,30.29,SSW,203,3.5,3.5,92,0.00,CLR,,0.00,WeatherDisplay:10.37,2013-05-20 10:40:00,
2013-05-20 03:45:00,39.6,37.5,30.29,SSW,202,4.6,4.6,92,0.00,CLR,,0.00,WeatherDisplay:10.37,2013-05-20 10:45:00,
2013-05-20 03:50:00,39.4,37.3,30.29,SSW,197,3.5,3.5,92,0.00,CLR,,0.00,WeatherDisplay:10.37,2013-05-20 10:50:00,
2013-05-20 03:55:00,39.3,37.2,30.29,SSW,197,3.5,3.5,92,0.00,CLR,,0.00,WeatherDisplay:10.37,2013-05-20 10:55:00,
2013-05-20 04:00:00,39.2,37.3,30.29,SSW,197,4.6,4.6,93,0.00,CLR,,0.00,WeatherDisplay:10.37,2013-05-20 11:00:00,
2013-05-20 04:05:00,39.3,37.4,30.29,SSW,197,3.5,3.5,93,0.00,CLR,,0.00,WeatherDisplay:10.37,2013-05-20 11:05:00,
2013-05-20 04:10:00,39.1,37.2,30.29,SSW,196,3.5,3.5,93,0.00,CLR,,0.00,WeatherDisplay:10.37,2013-05-20 11:10:00,
2013-05-20 04:15:00,39.1,37.2,30.28,SSW,195,2.3,2.3,93,0.00,CLR,,0.00,WeatherDisplay:10.37,2013-05-20 11:15:00,
2013-05-20 04:20:00,39.0,37.1,30.28,SSW,195,2.3,2.3,93,0.00,CLR,,0.00,WeatherDisplay:10.37,2013-05-20 11:20:00,
2013-05-20 04:25:00,38.9,37.3,30.28,SSW,195,3.5,3.5,94,0.00,CLR,,0.00,WeatherDisplay:10.37,2013-05-20 11:25:00,
2013-05-20 04:30:00,38.9,37.0,30.28,SSW,195,2.3,2.3,93,0.00,CLR,,0.00,WeatherDisplay:10.37,2013-05-20 11:30:00,
2013-05-20 04:35:00,38.8,36.9,30.28,SSW,195,2.3,2.3,93,0.00,CLR,,0.00,WeatherDisplay:10.37,2013-05-20 11:35:00,
2013-05-20 04:40:00,38.7,37.1,30.28,SSW,195,0.0,0.0,94,0.00,CLR,,0.00,WeatherDisplay:10.37,2013-05-20 11:40:00,
2013-05-20 04:45:00,38.4,36.8,30.28,SSW,195,2.3,0.0,94,0.00,CLR,,0.00,WeatherDisplay:10.37,2013-05-20 11:45:00,
2013-05-20 04:50:00,38.2,36.6,30.28,SSW,195,0.0,0.2,94,0.00,CLR,,0.00,WeatherDisplay:10.37,2013-05-20 11:50:00,
2013-05-20 04:55:00,38.2,36.6,30.28,SSW,195,0.0,0.0,94,0.00,CLR,,0.00,WeatherDisplay:10.37,2013-05-20 11:55:00,
2013-05-20 05:00:00,38.2,36.6,30.28,SSW,195,1.1,1.1,94,0.00,CLR,,0.00,WeatherDisplay:10.37,2013-05-20 12:00:00,
2013-05-20 05:05:00,38.5,37.2,30.28,SSW,195,0.0,0.0,95,0.00,CLR,,0.00,WeatherDisplay:10.37,2013-05-20 12:05:00,
2013-05-20 05:10:00,38.8,37.5,30.27,SSW,195,1.1,0.0,95,0.00,CLR,,0.00,WeatherDisplay:10.37,2013-05-20 12:10:00,
2013-05-20 05:15:00,38.9,37.6,30.28,SSW,195,1.0,1.0,95,0.00,CLR,,0.00,WeatherDisplay:10.37,2013-05-20 12:15:00,
2013-05-20 05:20:00,38.9,37.6,30.27,SSW,195,0.0,0.0,95,0.00,CLR,,0.00,WeatherDisplay:10.37,2013-05-20 12:20:00,
2013-05-20 05:25:00,38.7,37.4,30.27,SSW,195,2.3,2.3,95,0.00,CLR,,0.00,WeatherDisplay:10.37,2013-05-20 12:25:00,
2013-05-20 05:30:00,38.6,37.3,30.27,SSW,195,3.5,3.5,95,0.00,CLR,,0.00,WeatherDisplay:10.37,2013-05-20 12:30:00,
2013-05-20 05:35:00,38.5,37.2,30.27,SSW,200,3.5,3.5,95,0.00,CLR,,0.00,WeatherDisplay:10.37,2013-05-20 12:35:00,
2013-05-20 05:40:00,38.2,36.9,30.27,SSW,197,1.1,1.1,95,0.00,CLR,,0.00,WeatherDisplay:10.37,2013-05-20 12:40:00,
2013-05-20 05:45:00,38.0,36.7,30.27,SSW,197,3.5,3.5,95,0.00,CLR,,0.00,WeatherDisplay:10.37,2013-05-20 12:45:00,
2013-05-20 05:50:00,37.9,36.6,30.27,SSW,198,1.1,0.0,95,0.00,CLR,,0.00,WeatherDisplay:10.37,2013-05-20 12:50:00,
2013-05-20 05:55:00,38.0,36.7,30.27,SSW,198,1.1,1.1,95,0.00,CLR,,0.00,WeatherDisplay:10.37,2013-05-20 12:55:00,
2013-05-20 06:00:00,38.2,37.2,30.27,SSW,198,1.1,0.0,96,0.00,CLR,,0.00,WeatherDisplay:10.37,2013-05-20 13:00:00,
2013-05-20 06:05:00,38.3,37.0,30.27,SSW,198,1.1,0.0,95,0.00,CLR,,0.00,WeatherDisplay:10.37,2013-05-20 13:05:00,
2013-05-20 06:10:00,38.4,37.4,30.26,SSW,198,0.0,0.0,96,0.00,CLR,,0.00,WeatherDisplay:10.37,2013-05-20 13:10:00,
2013-05-20 06:15:00,38.8,37.8,30.27,SSW,198,2.3,2.3,96,0.00,CLR,,0.00,WeatherDisplay:10.37,2013-05-20 13:15:00,
2013-05-20 06:20:00,39.3,38.3,30.27,SSW,198,1.0,1.0,96,0.00,CLR,,0.00,WeatherDisplay:10.37,2013-05-20 13:20:00,
2013-05-20 06:25:00,39.8,38.8,30.26,SSW,198,2.0,2.0,96,0.00,CLR,,0.00,WeatherDisplay:10.37,2013-05-20 13:25:00,
2013-05-20 06:30:00,40.4,39.4,30.27,SSW,198,1.1,0.0,96,0.00,CLR,,0.00,WeatherDisplay:10.37,2013-05-20 13:30:00,
2013-05-20 06:35:00,41.1,40.0,30.26,SSW,197,0.0,0.0,96,0.00,CLR,,0.00,WeatherDisplay:10.37,2013-05-20 13:35:00,
2013-05-20 06:40:00,42.0,40.9,30.26,SSW,197,1.1,1.1,96,0.00,CLR,,0.00,WeatherDisplay:10.37,2013-05-20 13:40:00,
2013-05-20 06:45:00,43.0,41.7,30.26,SSW,197,0.0,0.0,95,0.00,CLR,,0.00,WeatherDisplay:10.37,2013-05-20 13:45:00,
2013-05-20 06:50:00,44.0,42.7,30.26,SSW,195,1.1,1.1,95,0.00,CLR,,0.00,WeatherDisplay:10.37,2013-05-20 13:50:00,
2013-05-20 06:55:00,44.8,43.2,30.26,SSW,195,0.0,0.0,94,0.00,CLR,,0.00,WeatherDisplay:10.37,2013-05-20 13:55:00,
2013-05-20 07:00:00,45.6,43.7,30.27,SSW,194,2.3,2.3,93,0.00,CLR,,0.00,WeatherDisplay:10.37,2013-05-20 14:00:00,
2013-05-20 07:05:00,46.3,44.1,30.27,SSW,194,1.1,0.0,92,0.00,CLR,,0.00,WeatherDisplay:10.37,2013-05-20 14:05:00,
2013-05-20 07:10:00,47.1,44.6,30.27,SSW,193,2.3,0.0,91,0.00,CLR,,0.00,WeatherDisplay:10.37,2013-05-20 14:10:00,
2013-05-20 07:15:00,48.2,45.4,30.27,SW,234,5.8,5.8,90,0.00,CLR,,0.00,WeatherDisplay:10.37,2013-05-20 14:15:00,
2013-05-20 07:20:00,49.2,45.2,30.27,WSW,238,6.9,6.9,86,0.00,CLR,,0.00,WeatherDisplay:10.37,2013-05-20 14:20:00,
2013-05-20 07:25:00,49.8,44.8,30.26,WSW,258,6.9,6.9,83,0.00,CLR,,0.00,WeatherDisplay:10.37,2013-05-20 14:25:00,
2013-05-20 07:30:00,50.5,45.5,30.26,SW,233,3.5,3.5,83,0.00,CLR,,0.00,WeatherDisplay:10.37,2013-05-20 14:30:00,
2013-05-20 07:35:00,51.0,45.4,30.26,SW,227,5.8,5.8,81,0.00,CLR,,0.00,WeatherDisplay:10.37,2013-05-20 14:35:00,
2013-05-20 07:40:00,51.5,45.9,30.26,SSW,196,3.5,3.5,81,0.00,CLR,,0.00,WeatherDisplay:10.37,2013-05-20 14:40:00,
2013-05-20 07:45:00,51.9,45.6,30.26,SSW,202,3.5,3.5,79,0.00,CLR,,0.00,WeatherDisplay:10.37,2013-05-20 14:45:00,
2013-05-20 07:50:00,52.1,45.4,30.26,SW,220,3.5,3.5,78,0.00,CLR,,0.00,WeatherDisplay:10.37,2013-05-20 14:50:00,
2013-05-20 07:55:00,52.2,45.2,30.26,WSW,240,6.0,6.0,77,0.00,CLR,,0.00,WeatherDisplay:10.37,2013-05-20 14:55:00,
2013-05-20 08:00:00,52.3,45.3,30.25,SSW,207,5.8,5.8,77,0.00,CLR,,0.00,WeatherDisplay:10.37,2013-05-20 15:00:00,
2013-05-20 08:05:00,52.5,45.5,30.25,SW,231,6.9,6.9,77,0.00,CLR,,0.00,WeatherDisplay:10.37,2013-05-20 15:05:00,
2013-05-20 08:10:00,52.3,45.0,30.25,South,186,4.0,4.0,76,0.00,CLR,,0.00,WeatherDisplay:10.37,2013-05-20 15:10:00,
2013-05-20 08:15:00,52.5,45.2,30.25,SSW,193,3.5,3.5,76,0.00,CLR,,0.00,WeatherDisplay:10.37,2013-05-20 15:15:00,
2013-05-20 08:20:00,52.9,45.2,30.25,South,170,3.5,3.5,75,0.00,CLR,,0.00,WeatherDisplay:10.37,2013-05-20 15:20:00,
2013-05-20 08:25:00,53.2,45.8,30.25,South,184,3.5,3.5,76,0.00,CLR,,0.00,WeatherDisplay:10.37,2013-05-20 15:25:00,
2013-05-20 08:30:00,53.7,46.0,30.24,South,172,5.8,5.8,75,0.00,CLR,,0.00,WeatherDisplay:10.37,2013-05-20 15:30:00,
2013-05-20 08:36:00,54.1,45.6,30.24,South,171,6.0,6.0,73,0.00,CLR,,0.00,WeatherDisplay:10.37,2013-05-20 15:36:00,
2013-05-20 08:41:00,54.3,45.5,30.24,SSE,164,7.0,7.0,72,0.00,CLR,,0.00,WeatherDisplay:10.37,2013-05-20 15:41:00,
2013-05-20 08:46:00,54.6,46.1,30.24,South,170,6.9,6.9,73,0.00,CLR,,0.00,WeatherDisplay:10.37,2013-05-20 15:46:00,
2013-05-20 08:51:00,54.9,46.4,30.24,South,182,4.6,4.6,73,0.00,CLR,,0.00,WeatherDisplay:10.37,2013-05-20 15:51:00,
2013-05-20 08:56:00,55.3,46.1,30.23,South,174,3.5,3.5,71,0.00,CLR,,0.00,WeatherDisplay:10.37,2013-05-20 15:56:00,
2013-05-20 09:01:00,55.6,46.3,30.24,SSE,157,3.5,3.5,71,0.00,CLR,,0.00,WeatherDisplay:10.37,2013-05-20 16:01:00,
2013-05-20 09:06:00,56.0,46.4,30.24,SW,234,6.0,6.0,70,0.00,CLR,,0.00,WeatherDisplay:10.37,2013-05-20 16:06:00,
2013-05-20 09:11:00,56.5,45.7,30.23,SSE,161,10.4,10.4,67,0.00,CLR,,0.00,WeatherDisplay:10.37,2013-05-20 16:11:00,
2013-05-20 09:16:00,57.0,46.1,30.23,SSW,193,4.6,4.6,67,0.00,CLR,,0.00,WeatherDisplay:10.37,2013-05-20 16:16:00,
2013-05-20 09:21:00,57.6,46.7,30.23,South,180,5.8,5.8,67,0.00,CLR,,0.00,WeatherDisplay:10.37,2013-05-20 16:21:00,
2013-05-20 09:26:00,57.6,46.3,30.23,SSE,161,3.5,3.5,66,0.00,CLR,,0.00,WeatherDisplay:10.37,2013-05-20 16:26:00,
2013-05-20 09:31:00,58.0,46.7,30.23,SW,219,3.5,3.5,66,0.00,CLR,,0.00,WeatherDisplay:10.37,2013-05-20 16:31:00,
2013-05-20 09:36:00,58.3,46.2,30.23,SE,142,8.1,8.1,64,0.00,CLR,,0.00,WeatherDisplay:10.37,2013-05-20 16:36:00,
2013-05-20 09:41:00,58.4,46.3,30.22,SSE,150,3.5,3.5,64,0.00,CLR,,0.00,WeatherDisplay:10.37,2013-05-20 16:41:00,
2013-05-20 09:46:00,58.8,46.2,30.22,SSE,166,3.5,3.5,63,0.00,CLR,,0.00,WeatherDisplay:10.37,2013-05-20 16:46:00,
2013-05-20 09:51:00,59.4,45.9,30.22,East,98,4.6,4.6,61,0.00,CLR,,0.00,WeatherDisplay:10.37,2013-05-20 16:51:00,
2013-05-20 09:56:00,59.4,46.4,30.22,SSE,152,4.6,4.6,62,0.00,CLR,,0.00,WeatherDisplay:10.37,2013-05-20 16:56:00,
2013-05-20 10:01:00,59.8,46.3,30.21,SSE,157,3.5,3.5,61,0.00,CLR,,0.00,WeatherDisplay:10.37,2013-05-20 17:01:00,
2013-05-20 10:06:00,60.2,46.7,30.21,East,91,3.5,3.5,61,0.00,CLR,,0.00,WeatherDisplay:10.37,2013-05-20 17:06:00,
2013-05-20 10:11:00,60.8,47.3,30.21,East,85,3.5,3.5,61,0.00,CLR,,0.00,WeatherDisplay:10.37,2013-05-20 17:11:00,
2013-05-20 10:16:00,61.4,47.4,30.21,SW,219,2.3,0.0,60,0.00,CLR,,0.00,WeatherDisplay:10.37,2013-05-20 17:16:00,
2013-05-20 10:21:00,62.3,47.8,30.20,NE,44,4.0,4.0,59,0.00,CLR,,0.00,WeatherDisplay:10.37,2013-05-20 17:21:00,
2013-05-20 10:26:00,63.0,48.4,30.20,NE,48,1.1,1.1,59,0.00,CLR,,0.00,WeatherDisplay:10.37,2013-05-20 17:26:00,
2013-05-20 10:31:00,63.0,46.6,30.20,SSE,158,5.8,5.8,55,0.00,CLR,,0.00,WeatherDisplay:10.37,2013-05-20 17:31:00,
2013-05-20 10:36:00,62.5,46.1,30.19,East,81,3.0,3.0,55,0.00,CLR,,0.00,WeatherDisplay:10.37,2013-05-20 17:36:00,
2013-05-20 10:41:00,63.1,47.1,30.19,ENE,76,2.3,0.0,56,0.00,CLR,,0.00,WeatherDisplay:10.37,2013-05-20 17:41:00,
2013-05-20 10:46:00,63.3,46.4,30.19,SSW,210,5.8,5.8,54,0.00,CLR,,0.00,WeatherDisplay:10.37,2013-05-20 17:46:00,
2013-05-20 10:51:00,64.0,46.5,30.19,ESE,112,6.0,6.0,53,0.00,CLR,,0.00,WeatherDisplay:10.37,2013-05-20 17:51:00,
2013-05-20 10:56:00,64.0,46.0,30.18,South,170,5.8,5.8,52,0.00,CLR,,0.00,WeatherDisplay:10.37,2013-05-20 17:56:00,
2013-05-20 11:01:00,64.5,47.0,30.18,East,93,3.5,3.5,53,0.00,CLR,,0.00,WeatherDisplay:10.37,2013-05-20 18:01:00,
2013-05-20 11:06:00,64.6,47.6,30.18,SE,144,8.1,8.1,54,0.00,CLR,,0.00,WeatherDisplay:10.37,2013-05-20 18:06:00,
2013-05-20 11:11:00,65.0,47.4,30.18,ESE,108,2.3,2.3,53,0.00,CLR,,0.00,WeatherDisplay:10.37,2013-05-20 18:11:00,
2013-05-20 11:16:00,65.3,46.7,30.18,ENE,60,3.5,3.5,51,0.00,CLR,,0.00,WeatherDisplay:10.37,2013-05-20 18:16:00,
2013-05-20 11:21:00,65.6,46.5,30.17,ESE,110,3.5,3.5,50,0.00,CLR,,0.00,WeatherDisplay:10.37,2013-05-20 18:21:00,
2013-05-20 11:26:00,66.0,47.3,30.17,ESE,110,3.5,3.5,51,0.00,CLR,,0.00,WeatherDisplay:10.37,2013-05-20 18:26:00,
2013-05-20 11:31:00,66.5,47.3,30.17,NE,47,5.0,5.0,50,0.00,CLR,,0.00,WeatherDisplay:10.37,2013-05-20 18:31:00,
2013-05-20 11:36:00,67.1,47.3,30.17,East,89,5.0,5.0,49,0.00,CLR,,0.00,WeatherDisplay:10.37,2013-05-20 18:36:00,
2013-05-20 11:41:00,66.7,46.9,30.17,ENE,58,5.0,5.0,49,0.00,CLR,,0.00,WeatherDisplay:10.37,2013-05-20 18:41:00,
2013-05-20 11:46:00,66.9,46.6,30.16,South,182,5.8,5.8,48,0.00,CLR,,0.00,WeatherDisplay:10.37,2013-05-20 18:46:00,
2013-05-20 11:51:00,67.3,46.4,30.16,ESE,104,4.0,4.0,47,0.00,CLR,,0.00,WeatherDisplay:10.37,2013-05-20 18:51:00,
2013-05-20 11:56:00,66.9,45.4,30.16,SSE,147,10.4,10.4,46,0.00,CLR,,0.00,WeatherDisplay:10.37,2013-05-20 18:56:00,
2013-05-20 12:01:00,67.1,45.6,30.15,SE,124,7.0,7.0,46,0.00,CLR,,0.00,WeatherDisplay:10.37,2013-05-20 19:01:00,
2013-05-20 12:06:00,67.6,44.3,30.15,ESE,120,13.8,13.8,43,0.00,CLR,,0.00,WeatherDisplay:10.37,2013-05-20 19:06:00,
2013-05-20 12:11:00,67.9,45.2,30.15,ESE,113,4.0,4.0,44,0.00,CLR,,0.00,WeatherDisplay:10.37,2013-05-20 19:11:00,
2013-05-20 12:16:00,68.4,45.0,30.14,NW,319,5.0,5.0,43,0.00,CLR,,0.00,WeatherDisplay:10.37,2013-05-20 19:16:00,
2013-05-20 12:21:00,68.7,44.7,30.14,SSE,158,7.0,7.0,42,0.00,CLR,,0.00,WeatherDisplay:10.37,2013-05-20 19:21:00,
2013-05-20 12:26:00,68.9,43.6,30.14,South,177,12.7,12.7,40,0.00,CLR,,0.00,WeatherDisplay:10.37,2013-05-20 19:26:00,
2013-05-20 12:31:00,69.3,39.7,30.13,SE,143,6.9,6.9,34,0.00,CLR,,0.00,WeatherDisplay:10.37,2013-05-20 19:31:00,
2013-05-20 12:36:00,69.4,44.0,30.13,East,91,8.1,8.1,40,0.00,CLR,,0.00,WeatherDisplay:10.37,2013-05-20 19:36:00,
2013-05-20 12:41:00,69.3,43.3,30.13,ESE,121,6.0,6.0,39,0.00,CLR,,0.00,WeatherDisplay:10.37,2013-05-20 19:41:00,
2013-05-20 12:46:00,69.2,43.2,30.12,SSE,157,11.5,11.5,39,0.00,CLR,,0.00,WeatherDisplay:10.37,2013-05-20 19:46:00,
2013-05-20 12:51:00,69.4,42.7,30.12,SSE,155,10.4,10.4,38,0.00,CLR,,0.00,WeatherDisplay:10.37,2013-05-20 19:51:00,
2013-05-20 12:56:00,69.6,42.9,30.12,SE,146,10.4,10.4,38,0.00,CLR,,0.00,WeatherDisplay:10.37,2013-05-20 19:56:00,
2013-05-20 13:01:00,70.2,43.4,30.11,SE,145,11.5,11.5,38,0.00,CLR,,0.00,WeatherDisplay:10.37,2013-05-20 20:01:00,
2013-05-20 13:06:00,70.2,43.4,30.12,ENE,63,3.5,3.5,38,0.00,CLR,,0.00,WeatherDisplay:10.37,2013-05-20 20:06:00,
2013-05-20 13:11:00,70.3,43.5,30.11,ESE,108,8.1,8.1,38,0.00,CLR,,0.00,WeatherDisplay:10.37,2013-05-20 20:11:00,
2013-05-20 13:16:00,70.3,42.8,30.11,SE,134,6.9,6.9,37,0.00,CLR,,0.00,WeatherDisplay:10.37,2013-05-20 20:16:00,
2013-05-20 13:21:00,70.4,43.6,30.11,NE,51,3.5,3.5,38,0.00,CLR,,0.00,WeatherDisplay:10.37,2013-05-20 20:21:00,
2013-05-20 13:26:00,71.2,42.9,30.10,South,173,3.5,3.5,36,0.00,CLR,,0.00,WeatherDisplay:10.37,2013-05-20 20:26:00,
2013-05-20 13:31:00,72.3,45.3,30.10,South,176,3.5,3.5,38,0.00,CLR,,0.00,WeatherDisplay:10.37,2013-05-20 20:31:00,
2013-05-20 13:36:00,73.1,46.0,30.09,SSW,203,8.1,8.1,38,0.00,CLR,,0.00,WeatherDisplay:10.37,2013-05-20 20:36:00,
2013-05-20 13:41:00,73.2,44.6,30.09,SSW,212,5.8,5.8,36,0.00,CLR,,0.00,WeatherDisplay:10.37,2013-05-20 20:41:00,
2013-05-20 13:46:00,72.7,43.5,30.09,SE,131,6.9,6.9,35,0.00,CLR,,0.00,WeatherDisplay:10.37,2013-05-20 20:46:00,
2013-05-20 13:51:00,72.5,45.4,30.09,SE,132,3.5,3.5,38,0.00,CLR,,0.00,WeatherDisplay:10.37,2013-05-20 20:51:00,
2013-05-20 13:56:00,73.2,43.9,30.08,SE,129,8.0,8.0,35,0.00,CLR,,0.00,WeatherDisplay:10.37,2013-05-20 20:56:00,
2013-05-20 14:01:00,72.4,43.2,30.08,South,176,12.7,12.7,35,0.00,CLR,,0.00,WeatherDisplay:10.37,2013-05-20 21:01:00,
2013-05-20 14:06:00,72.0,42.8,30.08,West,262,8.1,8.1,35,0.00,CLR,,0.00,WeatherDisplay:10.37,2013-05-20 21:06:00,
2013-05-20 14:12:00,72.4,43.9,30.08,WSW,256,7.0,7.0,36,0.00,CLR,,0.00,WeatherDisplay:10.37,2013-05-20 21:12:00,
2013-05-20 14:17:00,72.4,43.9,30.07,NNW,343,6.9,6.9,36,0.00,CLR,,0.00,WeatherDisplay:10.37,2013-05-20 21:17:00,
2013-05-20 14:22:00,73.4,43.3,30.07,NNE,14,3.5,3.5,34,0.00,CLR,,0.00,WeatherDisplay:10.37,2013-05-20 21:22:00,
2013-05-20 14:27:00,74.4,44.2,30.07,WSW,254,3.5,3.5,34,0.00,CLR,,0.00,WeatherDisplay:10.37,2013-05-20 21:27:00,
2013-05-20 14:32:00,75.0,43.9,30.06,WNW,301,9.2,9.2,33,0.00,CLR,,0.00,WeatherDisplay:10.37,2013-05-20 21:32:00,
2013-05-20 14:37:00,74.4,44.2,30.06,West,262,4.6,4.6,34,0.00,CLR,,0.00,WeatherDisplay:10.37,2013-05-20 21:37:00,
2013-05-20 14:42:00,73.8,42.9,30.06,East,98,11.5,11.5,33,0.00,CLR,,0.00,WeatherDisplay:10.37,2013-05-20 21:42:00,
2013-05-20 14:47:00,73.5,43.4,30.06,SSE,159,5.8,5.8,34,0.00,CLR,,0.00,WeatherDisplay:10.37,2013-05-20 21:47:00,
2013-05-20 14:52:00,73.8,43.7,30.05,East,84,5.8,5.8,34,0.00,CLR,,0.00,WeatherDisplay:10.37,2013-05-20 21:52:00,
2013-05-20 14:57:00,73.9,45.3,30.05,NW,313,6.0,6.0,36,0.00,CLR,,0.00,WeatherDisplay:10.37,2013-05-20 21:57:00,
2013-05-20 15:02:00,73.7,47.2,30.05,West,273,14.0,14.0,39,0.00,CLR,,0.00,WeatherDisplay:10.37,2013-05-20 22:02:00,
2013-05-20 15:07:00,73.3,46.8,30.05,NW,326,9.2,9.2,39,0.00,CLR,,0.00,WeatherDisplay:10.37,2013-05-20 22:07:00,
2013-05-20 15:12:00,73.3,46.2,30.04,WNW,282,8.1,8.1,38,0.00,CLR,,0.00,WeatherDisplay:10.37,2013-05-20 22:12:00,
2013-05-20 15:17:00,73.2,46.8,30.04,West,272,9.2,9.2,39,0.00,CLR,,0.00,WeatherDisplay:10.37,2013-05-20 22:17:00,
2013-05-20 15:22:00,72.9,45.8,30.04,NNW,345,15.0,15.0,38,0.00,CLR,,0.00,WeatherDisplay:10.37,2013-05-20 22:22:00,
2013-05-20 15:27:00,72.6,46.2,30.04,NNW,343,6.0,6.0,39,0.00,CLR,,0.00,WeatherDisplay:10.37,2013-05-20 22:27:00,
2013-05-20 15:32:00,73.6,46.4,30.03,WNW,301,8.1,8.1,38,0.00,CLR,,0.00,WeatherDisplay:10.37,2013-05-20 22:32:00,
2013-05-20 15:37:00,74.6,46.6,30.03,NNE,12,3.5,3.5,37,0.00,CLR,,0.00,WeatherDisplay:10.37,2013-05-20 22:37:00,
2013-05-20 15:42:00,74.6,45.9,30.03,NNW,339,4.6,4.6,36,0.00,CLR,,0.00,WeatherDisplay:10.37,2013-05-20 22:42:00,
2013-05-20 15:47:00,74.6,45.1,30.02,NE,41,10.4,10.4,35,0.00,CLR,,0.00,WeatherDisplay:10.37,2013-05-20 22:47:00,
2013-05-20 15:52:00,74.5,45.8,30.02,NE,38,9.2,9.2,36,0.00,CLR,,0.00,WeatherDisplay:10.37,2013-05-20 22:52:00,
2013-05-20 15:57:00,74.7,46.7,30.02,NE,42,10.4,10.4,37,0.00,CLR,,0.00,WeatherDisplay:10.37,2013-05-20 22:57:00,
2013-05-20 16:02:00,74.7,46.0,30.02,NNE,23,11.5,11.5,36,0.00,CLR,,0.00,WeatherDisplay:10.37,2013-05-20 23:02:00,
2013-05-20 16:07:00,74.6,46.6,30.01,North,0,6.9,6.9,37,0.00,CLR,,0.00,WeatherDisplay:10.37,2013-05-20 23:07:00,
2013-05-20 16:12:00,74.9,46.1,30.01,NNW,348,9.2,9.2,36,0.00,CLR,,0.00,WeatherDisplay:10.37,2013-05-20 23:12:00,
2013-05-20 16:17:00,74.4,45.7,30.01,West,268,6.9,6.9,36,0.00,CLR,,0.00,WeatherDisplay:10.37,2013-05-20 23:17:00,
2013-05-20 16:22:00,74.2,45.5,30.00,North,0,4.6,4.6,36,0.00,CLR,,0.00,WeatherDisplay:10.37,2013-05-20 23:22:00,
2013-05-20 16:27:00,74.3,45.6,30.00,NW,307,2.3,2.3,36,0.00,CLR,,0.00,WeatherDisplay:10.37,2013-05-20 23:27:00,
2013-05-20 16:32:00,75.0,46.2,30.00,NNE,23,6.0,6.0,36,0.00,CLR,,0.00,WeatherDisplay:10.37,2013-05-20 23:32:00,
2013-05-20 16:37:00,75.5,45.9,29.99,North,2,11.0,11.0,35,0.00,CLR,,0.00,WeatherDisplay:10.37,2013-05-20 23:37:00,
2013-05-20 16:42:00,75.6,46.0,29.99,NW,325,4.6,4.6,35,0.00,CLR,,0.00,WeatherDisplay:10.37,2013-05-20 23:42:00,
2013-05-20 16:47:00,75.3,45.7,29.99,NE,34,11.5,11.5,35,0.00,CLR,,0.00,WeatherDisplay:10.37,2013-05-20 23:47:00,
2013-05-20 16:52:00,75.2,45.7,29.98,NE,34,6.9,6.9,35,0.00,CLR,,0.00,WeatherDisplay:10.37,2013-05-20 23:52:00,
2013-05-20 16:57:00,75.5,45.9,29.98,NNE,28,9.0,9.0,35,0.00,CLR,,0.00,WeatherDisplay:10.37,2013-05-20 23:57:00,
2013-05-20 17:02:00,74.9,45.4,29.98,NE,54,8.1,8.1,35,0.00,CLR,,0.00,WeatherDisplay:10.37,2013-05-21 00:02:00,
2013-05-20 17:07:00,74.4,45.0,29.97,ENE,77,4.6,4.6,35,0.00,CLR,,0.00,WeatherDisplay:10.37,2013-05-21 00:07:00,
2013-05-20 17:12:00,74.4,45.7,29.97,NNE,15,4.6,4.6,36,0.00,CLR,,0.00,WeatherDisplay:10.37,2013-05-21 00:12:00,
2013-05-20 17:17:00,75.0,45.5,29.97,North,0,3.5,0.0,35,0.00,CLR,,0.00,WeatherDisplay:10.37,2013-05-21 00:17:00,
2013-05-20 17:22:00,75.4,45.8,29.97,NE,39,9.2,9.2,35,0.00,CLR,,0.00,WeatherDisplay:10.37,2013-05-21 00:22:00,
2013-05-20 17:27:00,75.1,45.6,29.96,NE,34,9.2,9.2,35,0.00,CLR,,0.00,WeatherDisplay:10.37,2013-05-21 00:27:00,
2013-05-20 17:32:00,75.0,45.5,29.96,NNE,33,11.5,11.5,35,0.00,CLR,,0.00,WeatherDisplay:10.37,2013-05-21 00:32:00,
2013-05-20 17:37:00,74.5,45.8,29.96,NNE,33,5.0,5.0,36,0.00,CLR,,0.00,WeatherDisplay:10.37,2013-05-21 00:37:00,
2013-05-20 17:42:00,74.5,46.5,29.96,NE,34,9.2,9.2,37,0.00,CLR,,0.00,WeatherDisplay:10.37,2013-05-21 00:42:00,
2013-05-20 17:47:00,75.1,46.3,29.95,NNW,327,3.5,3.5,36,0.00,CLR,,0.00,WeatherDisplay:10.37,2013-05-21 00:47:00,
2013-05-20 17:52:00,75.3,45.7,29.95,North,352,4.0,4.2,35,0.00,CLR,,0.00,WeatherDisplay:10.37,2013-05-21 00:52:00,
2013-05-20 17:57:00,74.6,45.9,29.95,NNW,338,6.9,6.9,36,0.00,CLR,,0.00,WeatherDisplay:10.37,2013-05-21 00:57:00,
2013-05-20 18:02:00,74.3,44.9,29.95,North,352,9.2,9.2,35,0.00,CLR,,0.00,WeatherDisplay:10.37,2013-05-21 01:02:00,
2013-05-20 18:07:00,74.3,44.9,29.95,ENE,58,8.1,8.1,35,0.00,CLR,,0.00,WeatherDisplay:10.37,2013-05-21 01:07:00,
2013-05-20 18:12:00,74.0,45.3,29.94,NE,45,8.1,8.1,36,0.00,CLR,,0.00,WeatherDisplay:10.37,2013-05-21 01:12:00,
2013-05-20 18:17:00,73.7,45.1,29.95,NE,43,10.4,10.4,36,0.00,CLR,,0.00,WeatherDisplay:10.37,2013-05-21 01:17:00,
2013-05-20 18:22:00,73.5,45.6,29.94,ENE,61,5.0,5.0,37,0.00,CLR,,0.00,WeatherDisplay:10.37,2013-05-21 01:22:00,
2013-05-20 18:27:00,73.4,45.5,29.94,ENE,58,9.2,9.2,37,0.00,CLR,,0.00,WeatherDisplay:10.37,2013-05-21 01:27:00,
2013-05-20 18:32:00,73.2,45.4,29.94,NNE,21,9.2,9.2,37,0.00,CLR,,0.00,WeatherDisplay:10.37,2013-05-21 01:32:00,
2013-05-20 18:37:00,73.1,45.3,29.93,NNE,26,10.4,10.4,37,0.00,CLR,,0.00,WeatherDisplay:10.37,2013-05-21 01:37:00,
2013-05-20 18:42:00,73.1,45.3,29.93,NNE,16,4.6,4.6,37,0.00,CLR,,0.00,WeatherDisplay:10.37,2013-05-21 01:42:00,
2013-05-20 18:47:00,73.2,45.4,29.93,NE,38,7.0,7.0,37,0.00,CLR,,0.00,WeatherDisplay:10.37,2013-05-21 01:47:00,
2013-05-20 18:52:00,73.2,44.6,29.93,NE,44,8.1,8.1,36,0.00,CLR,,0.00,WeatherDisplay:10.37,2013-05-21 01:52:00,
2013-05-20 18:57:00,73.0,45.2,29.93,NNE,31,4.6,4.6,37,0.00,CLR,,0.00,WeatherDisplay:10.37,2013-05-21 01:57:00,
2013-05-20 19:03:00,72.9,45.1,29.93,NE,43,8.1,8.1,37,0.00,CLR,,0.00,WeatherDisplay:10.37,2013-05-21 02:03:00,
2013-05-20 19:08:00,72.8,45.0,29.92,NE,39,9.2,9.2,37,0.00,CLR,,0.00,WeatherDisplay:10.37,2013-05-21 02:08:00,
2013-05-20 19:13:00,72.5,45.4,29.92,NNE,28,6.9,6.9,38,0.00,CLR,,0.00,WeatherDisplay:10.37,2013-05-21 02:13:00,
2013-05-20 19:18:00,72.4,45.4,29.92,NNE,22,8.1,8.1,38,0.00,CLR,,0.00,WeatherDisplay:10.37,2013-05-21 02:18:00,
2013-05-20 19:23:00,72.3,45.3,29.92,NNE,30,3.5,3.5,38,0.00,CLR,,0.00,WeatherDisplay:10.37,2013-05-21 02:23:00,
2013-05-20 19:28:00,72.1,45.8,29.92,NE,36,6.0,6.0,39,0.00,CLR,,0.00,WeatherDisplay:10.37,2013-05-21 02:28:00,
2013-05-20 19:33:00,71.9,46.3,29.92,NNE,32,3.5,3.5,40,0.00,CLR,,0.00,WeatherDisplay:10.37,2013-05-21 02:33:00,
2013-05-20 19:38:00,71.6,46.6,29.92,NE,46,1.1,0.0,41,0.00,CLR,,0.00,WeatherDisplay:10.37,2013-05-21 02:38:00,
2013-05-20 19:43:00,71.4,46.5,29.92,NNE,25,3.0,3.0,41,0.00,CLR,,0.00,WeatherDisplay:10.37,2013-05-21 02:43:00,
2013-05-20 19:48:00,71.0,46.1,29.92,NNE,28,2.3,2.3,41,0.00,CLR,,0.00,WeatherDisplay:10.37,2013-05-21 02:48:00,
2013-05-20 19:53:00,70.6,46.4,29.91,NNE,28,1.1,1.1,42,0.00,CLR,,0.00,WeatherDisplay:10.37,2013-05-21 02:53:00,
2013-05-20 19:58:00,70.2,46.0,29.91,NNE,26,2.3,2.3,42,0.00,CLR,,0.00,WeatherDisplay:10.37,2013-05-21 02:58:00,
2013-05-20 20:03:00,69.5,46.0,29.91,NNE,26,1.1,1.1,43,0.00,CLR,,0.00,WeatherDisplay:10.37,2013-05-21 03:03:00,
2013-05-20 20:08:00,68.7,47.1,29.91,NNW,329,8.1,8.1,46,0.00,CLR,,0.00,WeatherDisplay:10.37,2013-05-21 03:08:00,
2013-05-20 20:13:00,67.5,47.1,29.91,North,11,5.8,5.8,48,0.00,CLR,,0.00,WeatherDisplay:10.37,2013-05-21 03:13:00,
2013-05-20 20:18:00,66.6,47.9,29.91,NW,326,9.2,9.2,51,0.00,CLR,,0.00,WeatherDisplay:10.37,2013-05-21 03:18:00,
2013-05-20 20:23:00,65.7,48.6,29.91,NW,309,10.4,10.4,54,0.00,CLR,,0.00,WeatherDisplay:10.37,2013-05-21 03:23:00,
2013-05-20 20:28:00,65.2,49.1,29.91,WNW,293,12.7,12.7,56,0.00,CLR,,0.00,WeatherDisplay:10.37,2013-05-21 03:28:00,
2013-05-20 20:33:00,64.6,48.5,29.91,WNW,295,11.5,11.5,56,0.00,CLR,,0.00,WeatherDisplay:10.37,2013-05-21 03:33:00,
2013-05-20 20:38:00,64.2,48.6,29.90,NW,310,12.7,12.7,57,0.00,CLR,,0.00,WeatherDisplay:10.37,2013-05-21 03:38:00,
2013-05-20 20:43:00,63.8,48.7,29.91,NW,310,11.5,11.5,58,0.00,CLR,,0.00,WeatherDisplay:10.37,2013-05-21 03:43:00,
2013-05-20 20:48:00,63.5,48.5,29.90,NW,313,11.5,11.5,58,0.00,CLR,,0.00,WeatherDisplay:10.37,2013-05-21 03:48:00,
2013-05-20 20:53:00,63.2,48.2,29.90,NW,307,11.5,11.5,58,0.00,CLR,,0.00,WeatherDisplay:10.37,2013-05-21 03:53:00,
2013-05-20 20:58:00,62.9,48.3,29.90,WNW,298,9.2,9.2,59,0.00,CLR,,0.00,WeatherDisplay:10.37,2013-05-21 03:58:00,
2013-05-20 21:01:00,62.5,48.4,29.90,NW,308,11.5,11.5,60,0.00,CLR,,0.00,WeatherDisplay:10.37,2013-05-21 04:01:00,
2013-05-20 21:06:00,62.1,48.0,29.90,NW,309,9.2,9.2,60,0.00,CLR,,0.00,WeatherDisplay:10.37,2013-05-21 04:06:00,
2013-05-20 21:09:00,61.8,47.8,29.90,WNW,298,5.0,10.0,60,0.00,CLR,,0.00,WeatherDisplay:10.37,2013-05-21 04:09:00,
2013-05-20 21:13:00,61.9,47.9,29.90,NW,311,16.1,16.1,60,0.00,CLR,,0.00,WeatherDisplay:10.37,2013-05-21 04:13:00,
2013-05-20 21:18:00,61.8,48.2,29.90,WNW,302,12.7,12.7,61,0.00,CLR,,0.00,WeatherDisplay:10.37,2013-05-21 04:18:00,
2013-05-20 21:23:00,61.6,47.6,29.90,WNW,300,12.7,12.7,60,0.00,CLR,,0.00,WeatherDisplay:10.37,2013-05-21 04:23:00,
2013-05-20 21:28:00,61.3,47.7,29.90,NW,304,11.5,11.5,61,0.00,CLR,,0.00,WeatherDisplay:10.37,2013-05-21 04:28:00,
2013-05-20 21:33:00,61.5,47.9,29.90,WNW,290,10.4,10.4,61,0.00,CLR,,0.00,WeatherDisplay:10.37,2013-05-21 04:33:00,
2013-05-20 21:38:00,61.4,47.8,29.90,WNW,303,13.8,13.8,61,0.00,CLR,,0.00,WeatherDisplay:10.37,2013-05-21 04:38:00,
2013-05-20 21:43:00,61.0,47.4,29.90,NW,305,11.5,11.5,61,0.00,CLR,,0.00,WeatherDisplay:10.37,2013-05-21 04:43:00,
2013-05-20 21:48:00,60.8,47.3,29.90,NW,321,11.5,11.5,61,0.00,CLR,,0.00,WeatherDisplay:10.37,2013-05-21 04:48:00,
2013-05-20 21:50:00,60.7,47.6,29.90,WNW,290,11.5,11.5,62,0.00,CLR,,0.00,WeatherDisplay:10.37,2013-05-21 04:50:00,
2013-05-20 21:55:00,60.6,47.5,29.90,WNW,295,13.8,13.8,62,0.00,CLR,,0.00,WeatherDisplay:10.37,2013-05-21 04:55:00,
2013-05-20 22:00:00,60.8,47.7,29.90,WNW,293,15.0,15.0,62,0.00,CLR,,0.00,WeatherDisplay:10.37,2013-05-21 05:00:00,
2013-05-20 22:05:00,60.9,47.4,29.90,West,281,15.0,15.0,61,0.00,CLR,,0.00,WeatherDisplay:10.37,2013-05-21 05:05:00,
2013-05-20 22:10:00,60.3,47.2,29.90,WNW,291,12.7,12.7,62,0.00,CLR,,0.00,WeatherDisplay:10.37,2013-05-21 05:10:00,
2013-05-20 22:15:00,60.1,47.5,29.90,WNW,295,15.0,15.0,63,0.00,CLR,,0.00,WeatherDisplay:10.37,2013-05-21 05:15:00,
2013-05-20 22:20:00,60.1,47.5,29.89,West,279,11.5,11.5,63,0.00,CLR,,0.00,WeatherDisplay:10.37,2013-05-21 05:20:00,
2013-05-20 22:25:00,59.8,47.6,29.89,WNW,291,15.0,15.0,64,0.00,CLR,,0.00,WeatherDisplay:10.37,2013-05-21 05:25:00,
2013-05-20 22:30:00,59.8,47.6,29.89,WNW,297,15.0,15.0,64,0.00,CLR,,0.00,WeatherDisplay:10.37,2013-05-21 05:30:00,
2013-05-20 22:35:00,60.0,47.8,29.89,WNW,295,17.3,17.3,64,0.00,CLR,,0.00,WeatherDisplay:10.37,2013-05-21 05:35:00,
2013-05-20 22:40:00,59.8,47.6,29.89,WNW,287,15.0,15.0,64,0.00,CLR,,0.00,WeatherDisplay:10.37,2013-05-21 05:40:00,
2013-05-20 22:45:00,59.9,47.7,29.89,WNW,291,16.0,16.0,64,0.00,CLR,,0.00,WeatherDisplay:10.37,2013-05-21 05:45:00,
2013-05-20 22:50:00,59.9,47.7,29.89,West,280,15.0,15.0,64,0.00,CLR,,0.00,WeatherDisplay:10.37,2013-05-21 05:50:00,
2013-05-20 22:55:00,59.7,47.9,29.89,WNW,296,16.1,16.1,65,0.00,CLR,,0.00,WeatherDisplay:10.37,2013-05-21 05:55:00,
2013-05-20 23:00:00,59.5,48.1,29.88,WNW,284,13.8,13.8,66,0.00,CLR,,0.00,WeatherDisplay:10.37,2013-05-21 06:00:00,
2013-05-20 23:05:00,59.4,48.0,29.88,WNW,299,12.7,12.7,66,0.00,CLR,,0.00,WeatherDisplay:10.37,2013-05-21 06:05:00,
2013-05-20 23:10:00,59.2,47.8,29.88,WNW,283,11.5,11.5,66,0.00,CLR,,0.00,WeatherDisplay:10.37,2013-05-21 06:10:00,
2013-05-20 23:15:00,59.0,48.1,29.88,WNW,286,18.4,18.4,67,0.00,CLR,,0.00,WeatherDisplay:10.37,2013-05-21 06:15:00,
2013-05-20 23:20:00,58.7,48.2,29.88,WNW,289,11.5,11.5,68,0.00,CLR,,0.00,WeatherDisplay:10.37,2013-05-21 06:20:00,
2013-05-20 23:25:00,58.5,48.4,29.88,WNW,287,11.5,11.5,69,0.00,CLR,,0.00,WeatherDisplay:10.37,2013-05-21 06:25:00,
2013-05-20 23:30:00,58.4,48.3,29.87,WNW,291,11.5,11.5,69,0.00,CLR,,0.00,WeatherDisplay:10.37,2013-05-21 06:30:00,
2013-05-20 23:35:00,58.2,48.1,29.87,WNW,283,10.4,10.4,69,0.00,CLR,,0.00,WeatherDisplay:10.37,2013-05-21 06:35:00,
2013-05-20 23:40:00,58.1,48.0,29.87,NW,306,11.5,11.5,69,0.00,CLR,,0.00,WeatherDisplay:10.37,2013-05-21 06:40:00,
2013-05-20 23:45:00,58.0,47.9,29.87,WNW,286,11.5,11.5,69,0.00,CLR,,0.00,WeatherDisplay:10.37,2013-05-21 06:45:00,
2013-05-20 23:50:00,57.9,48.2,29.87,West,280,11.5,11.5,70,0.00,CLR,,0.00,WeatherDisplay:10.37,2013-05-21 06:50:00,
2013-05-20 23:55:00,57.8,47.7,29.86,NW,305,12.7,12.7,69,0.00,CLR,,0.00,WeatherDisplay:10.37,2013-05-21 06:55:00,